TimeEDT,TemperatureF,Dew PointF,Humidity,Sea Level PressureIn,VisibilityMPH,Wind Direction,Wind SpeedMPH,Gust SpeedMPH,PrecipitationIn,Events,Conditions,WindDirDegrees,DateUTC
12:51 AM,71.6,69.8,94,29.83,10.0,WSW,16.1,23.0,N/A,,Partly Cloudy,240,2013-08-23 04:51:00
12:56 AM,72.0,69.1,91,29.84,10.0,SW,13.8,-,N/A,,Scattered Clouds,230,2013-08-23 04:56:00
1:09 AM,73.4,69.8,88,29.83,10.0,SW,11.5,21.9,N/A,,Mostly Cloudy,230,2013-08-23 05:09:00
1:56 AM,72.0,69.1,91,29.83,10.0,WSW,12.7,-,N/A,,Overcast,240,2013-08-23 05:56:00
2:26 AM,71.6,69.8,94,29.82,10.0,WSW,11.5,18.4,N/A,,Overcast,240,2013-08-23 06:26:00
2:56 AM,72.0,69.1,91,29.82,10.0,WSW,12.7,-,N/A,,Overcast,240,2013-08-23 06:56:00
3:56 AM,71.1,69.1,93,29.82,8.0,West,6.9,-,N/A,,Mostly Cloudy,260,2013-08-23 07:56:00
4:13 AM,71.6,69.8,94,29.82,8.0,WSW,5.8,-,N/A,,Scattered Clouds,250,2013-08-23 08:13:00
4:56 AM,70.0,68.0,93,29.82,7.0,WSW,4.6,-,N/A,,Clear,240,2013-08-23 08:56:00
5:56 AM,70.0,68.0,93,29.83,8.0,WNW,3.5,-,N/A,,Partly Cloudy,290,2013-08-23 09:56:00
7:56 AM,71.1,64.0,78,29.87,10.0,North,9.2,-,N/A,,Mostly Cloudy,350,2013-08-23 11:56:00
8:56 AM,73.0,64.0,73,29.88,10.0,North,15.0,20.7,N/A,,Overcast,360,2013-08-23 12:56:00
9:56 AM,73.9,63.0,68,29.91,10.0,North,12.7,24.2,N/A,,Clear,10,2013-08-23 13:56:00
10:56 AM,73.9,60.1,62,29.91,10.0,North,18.4,26.5,N/A,,Partly Cloudy,10,2013-08-23 14:56:00
11:56 AM,73.0,59.0,61,29.93,10.0,NNE,17.3,29.9,N/A,,Clear,20,2013-08-23 15:56:00
12:13 PM,73.4,59.0,61,29.92,10.0,NNE,17.3,27.6,N/A,,Mostly Cloudy,30,2013-08-23 16:13:00
12:33 PM,75.2,59.0,57,29.93,10.0,NNE,17.3,32.2,N/A,,Partly Cloudy,20,2013-08-23 16:33:00
12:56 PM,75.0,59.0,57,29.93,10.0,North,17.3,27.6,N/A,,Clear,10,2013-08-23 16:56:00
1:56 PM,75.0,57.0,53,29.95,10.0,North,20.7,28.8,N/A,,Clear,10,2013-08-23 17:56:00
2:56 PM,73.9,57.0,55,29.96,10.0,North,19.6,24.2,N/A,,Clear,10,2013-08-23 18:56:00
3:56 PM,73.9,55.9,53,29.96,10.0,North,12.7,24.2,N/A,,Clear,10,2013-08-23 19:56:00
4:56 PM,75.9,53.1,45,29.97,10.0,NNE,12.7,-,N/A,,Clear,30,2013-08-23 20:56:00
5:56 PM,73.0,54.0,51,29.98,10.0,ENE,9.2,-,N/A,,Clear,60,2013-08-23 21:56:00
6:56 PM,71.1,55.9,59,29.99,10.0,ENE,5.8,-,N/A,,Clear,60,2013-08-23 22:56:00
7:56 PM,66.9,55.0,66,30.01,10.0,Calm,Calm,-,N/A,,Clear,0,2013-08-23 23:56:00
8:56 PM,63.0,57.0,81,30.05,10.0,Calm,Calm,-,N/A,,Clear,0,2013-08-24 00:56:00
9:56 PM,62.1,57.0,84,30.05,10.0,Calm,Calm,-,N/A,,Clear,0,2013-08-24 01:56:00
10:56 PM,61.0,55.9,83,30.07,10.0,Calm,Calm,-,N/A,,Clear,0,2013-08-24 02:56:00
11:56 PM,59.0,57.0,93,30.09,10.0,Calm,Calm,-,N/A,,Clear,0,2013-08-24 03:56:00